Weather History for EHWO - December, 2013

Change the Weather History Date:

Saturday, December 28, 2013

  Actual Average Record
Temperature  
Mean Temperature 44 °F -  
Max Temperature 48 °F 41 °F 51 °F (2012)
Min Temperature 41 °F 33 °F 15 °F (2014)
Degree Days  
Heating Degree Days 20    
Moisture  
Dew Point 43 °F    
Average Humidity 90    
Maximum Humidity 100    
Minimum Humidity 73    
Precipitation  
Precipitation 0.00 in - - ()
Sea Level Pressure  
Sea Level Pressure 29.46 in    
Wind  
Wind Speed 7 mph ()    
Max Wind Speed 12 mph    
Max Gust Speed -    
Visibility 7.0 miles    
Events Rain    
Averages and records for this station are not official NWS values.
T = Trace of Precipitation, MM = Missing Value Source: Averaged Metar Reports

Daily Weather History Graph

Daily Weather History Graph

Search for Another Location

Airport or City:

Trip Planner

Search our weather history database for the weather conditions in past years. The results will help you decide how hot, cold, wet, or windy it might be!

Date:

Astronomy

Dec. 28, 2013 Rise Set
Actual Time 8:47 AM CET 4:40 PM CET
Civil Twilight 8:07 AM CET 5:20 PM CET
Nautical Twilight 7:24 AM CET 6:03 PM CET
Astronomical Twilight 6:44 AM CET 6:44 PM CET
Moon 3:49 AM CET (12/28) 1:36 PM CET (12/28)
Length of Visible Light 9h 13m
Length of Day
7h 52m
Waning Crescent, 21% of the Moon is Illuminated
Dec 28
Waning Crescent
Jan 1
New
Jan 8
First Quarter
Jan 16
Full
Jan 24
Last Quarter

Hourly Weather History & Observations

Time (CET) Temp. Windchill Dew Point Humidity Pressure Visibility Wind Dir Wind Speed Gust Speed Precip Events Conditions
12:00 AM 47 °F - 45 °F 88% 29.36 in 5 mi SW 6.7 mph - - Rain Light Rain Showers
12:18 AM 46.4 °F 42.9 °F 44.6 °F 93% 29.36 in 6.2 mi SW 6.9 mph - N/A Rain Light Rain
12:25 AM 46.4 °F 42.4 °F 44.6 °F 93% 29.36 in 6.2 mi SW 8.1 mph - N/A Rain Light Rain
12:28 AM 46.4 °F 42.4 °F 44.6 °F 93% 29.36 in 4.3 mi SW 8.1 mph - N/A Rain Rain
12:30 AM 46.4 °F 42.4 °F 44.6 °F 93% 29.36 in 5.6 mi SW 8.1 mph - N/A Rain Light Rain
12:42 AM 46.4 °F 42.4 °F 44.6 °F 93% 29.36 in 6.2 mi WSW 8.1 mph - N/A Rain Light Drizzle
12:55 AM 46.4 °F 42.4 °F 44.6 °F 93% 29.36 in 6.2 mi SW 8.1 mph - N/A Rain Light Rain Showers
1:00 AM 46 °F - 45 °F 93% 29.37 in 5 mi SW 6.7 mph - - Rain Rain
1:25 AM 46.4 °F 44.3 °F 44.6 °F 93% 29.36 in 5.6 mi South 4.6 mph - N/A Rain Rain Showers
1:38 AM 46.4 °F 41.9 °F 44.6 °F 93% 29.36 in 5.6 mi SW 9.2 mph - N/A Rain Rain Showers
1:46 AM 46.4 °F 42.9 °F 44.6 °F 93% 29.36 in 6.2 mi SSW 6.9 mph - N/A Rain Light Rain Showers
1:55 AM 46.4 °F 42.9 °F 44.6 °F 93% 29.36 in 6.2 mi SSW 6.9 mph - N/A Rain Light Rain
1:56 AM 46.4 °F 42.9 °F 44.6 °F 93% 29.36 in 6.2 mi SW 6.9 mph - N/A Rain Rain Showers
2:00 AM 46 °F - 44 °F 91% 29.37 in 7 mi SW 6.7 mph - - Rain Rain
2:08 AM 46.4 °F 41.9 °F 44.6 °F 93% 29.36 in 6.2 mi SW 9.2 mph - N/A Rain Light Rain
2:25 AM 46.4 °F 42.4 °F 44.6 °F 93% 29.36 in 6.2 mi SW 8.1 mph - N/A Rain Light Rain
2:26 AM 46.4 °F 42.4 °F 44.6 °F 93% 29.36 in 6.2 mi SW 8.1 mph - N/A Rain Rain Showers
2:55 AM 46.4 °F 42.4 °F 44.6 °F 93% 29.36 in 6.2 mi SSW 8.1 mph - N/A Rain Rain Showers
3:00 AM 46 °F - 44 °F 92% 29.38 in 7 mi SSW 8.9 mph - - Rain Rain
3:13 AM 46.4 °F 42.9 °F 44.6 °F 93% 29.36 in 6.2 mi SSW 6.9 mph - N/A Rain Light Rain Showers
3:21 AM 46.4 °F 43.5 °F 44.6 °F 93% 29.36 in 6.2 mi South 5.8 mph - N/A Rain Light Rain Showers
3:25 AM 46.4 °F 43.5 °F 44.6 °F 93% 29.36 in 6.2 mi SSW 5.8 mph - N/A Rain Light Rain Showers
3:31 AM 46.4 °F 42.4 °F 44.6 °F 93% 29.36 in 6.2 mi SSW 8.1 mph - N/A Rain Light Rain
3:38 AM 46.4 °F 42.4 °F 44.6 °F 93% 29.36 in 6.2 mi SSW 8.1 mph - N/A Rain Light Rain
3:42 AM 46.4 °F 42.9 °F 44.6 °F 93% 29.36 in 6.2 mi SSW 6.9 mph - N/A Rain Light Rain
3:46 AM 46.4 °F 43.5 °F 44.6 °F 93% 29.36 in 6.2 mi SSW 5.8 mph - N/A Rain Light Rain
3:47 AM 46.4 °F 43.5 °F 44.6 °F 93% 29.36 in 6.2 mi SSW 5.8 mph - N/A Rain Light Rain
3:55 AM 46.4 °F 43.5 °F 44.6 °F 93% 29.36 in 6.2 mi SSW 5.8 mph - N/A Rain Light Rain
4:00 AM 46 °F - 44 °F 91% 29.38 in 7 mi SSW 6.7 mph - - Rain Rain
4:07 AM 46.4 °F 42.9 °F 44.6 °F 93% 29.36 in 6.2 mi SSW 6.9 mph - N/A Rain Light Rain
4:12 AM 46.4 °F 42.9 °F 44.6 °F 93% 29.36 in 6.2 mi SSW 6.9 mph - N/A Rain Light Rain Showers
4:25 AM 46.4 °F 42.4 °F 44.6 °F 93% 29.36 in 6.2 mi SW 8.1 mph - N/A Rain Light Rain Showers
4:35 AM 44.6 °F 39.7 °F 44.6 °F 100% 29.36 in 6.2 mi SW 9.2 mph - N/A Rain Light Rain
4:39 AM 44.6 °F 40.2 °F 44.6 °F 100% 29.36 in 6.2 mi SSW 8.1 mph - N/A Rain Light Rain Showers
4:48 AM 44.6 °F 41.4 °F 44.6 °F 100% 29.39 in 6.2 mi SSW 5.8 mph - N/A Rain Light Rain
4:55 AM 44.6 °F 43.1 °F 44.6 °F 100% 29.39 in 6.2 mi South 3.5 mph - N/A Rain Light Rain
5:00 AM 45 °F - 44 °F 96% 29.39 in 11 mi South 4.5 mph - - Rain Light Rain
5:01 AM 44.6 °F 43.1 °F 44.6 °F 100% 29.39 in 6.2 mi South 3.5 mph - N/A Rain Light Rain
5:07 AM 44.6 °F 42.2 °F 44.6 °F 100% 29.39 in 6.2 mi South 4.6 mph - N/A Rain Light Rain
5:15 AM 44.6 °F 42.2 °F 44.6 °F 100% 29.39 in 6.2 mi South 4.6 mph - N/A Rain Light Rain Showers
5:25 AM 44.6 °F 43.1 °F 44.6 °F 100% 29.39 in 6.2 mi South 3.5 mph - N/A Rain Light Rain
5:29 AM 44.6 °F 43.1 °F 44.6 °F 100% 29.39 in 6.2 mi SSW 3.5 mph - N/A Rain Light Rain
5:30 AM 44.6 °F 43.1 °F 44.6 °F 100% 29.39 in 6.2 mi SSW 3.5 mph - N/A Rain Light Rain
5:41 AM 44.6 °F 43.1 °F 44.6 °F 100% 29.39 in 6.2 mi South 3.5 mph - N/A Rain Light Rain
5:46 AM 44.6 °F 43.1 °F 44.6 °F 100% 29.39 in 6.2 mi South 3.5 mph - N/A Rain Drizzle
5:55 AM 44.6 °F 42.2 °F 44.6 °F 100% 29.39 in 6.2 mi South 4.6 mph - N/A   Drizzle
6:00 AM 45 °F - 44 °F 94% 29.39 in 12 mi South 4.5 mph - - Rain Light Rain
6:01 AM 44.6 °F 43.1 °F 44.6 °F 100% 29.39 in 6.2 mi South 3.5 mph - N/A Rain Light Rain
6:05 AM 44.6 °F 43.1 °F 44.6 °F 100% 29.39 in 6.2 mi South 3.5 mph - N/A Rain Drizzle
6:14 AM 44.6 °F 43.1 °F 44.6 °F 100% 29.39 in 6.2 mi South 3.5 mph - N/A Rain Light Rain
6:20 AM 44.6 °F 43.1 °F 44.6 °F 100% 29.39 in 6.2 mi SSW 3.5 mph - N/A Rain Light Rain
6:25 AM 44.6 °F 42.2 °F 44.6 °F 100% 29.39 in 6.2 mi SSW 4.6 mph - N/A   Drizzle
6:51 AM 44.6 °F 40.2 °F 42.8 °F 93% 29.39 in 6.2 mi South 8.1 mph - N/A   Mostly Cloudy
6:55 AM 44.6 °F 40.2 °F 42.8 °F 93% 29.39 in 6.2 mi South 8.1 mph - N/A   Mostly Cloudy
7:00 AM 45 °F - 43 °F 88% 29.42 in 28 mi SSW 8.9 mph - - Rain Rain
7:00 AM 44.6 °F 40.2 °F 42.8 °F 93% 29.39 in 6.2 mi SSW 8.1 mph - N/A   Overcast
7:13 AM 44.6 °F 40.7 °F 42.8 °F 93% 29.39 in 6.2 mi SSW 6.9 mph - N/A   Overcast
7:25 AM 44.6 °F 40.7 °F 42.8 °F 93% 29.39 in 6.2 mi SSW 6.9 mph - N/A   Light Drizzle
7:47 AM 44.6 °F 39.7 °F 42.8 °F 93% 29.42 in 6.2 mi SSW 9.2 mph - N/A   Overcast
7:55 AM 44.6 °F 40.2 °F 42.8 °F 93% 29.42 in 6.2 mi SSW 8.1 mph - N/A   Mostly Cloudy
8:00 AM 45 °F - 42 °F 86% 29.43 in 25 mi SSW 6.7 mph - - Rain Rain
8:09 AM 44.6 °F 40.7 °F 42.8 °F 93% 29.42 in 6.2 mi SSW 6.9 mph - N/A   Mostly Cloudy
8:25 AM 44.6 °F 40.2 °F 42.8 °F 93% 29.42 in 6.2 mi South 8.1 mph - N/A   Mostly Cloudy
8:55 AM 44.6 °F 40.2 °F 42.8 °F 93% 29.44 in 6.2 mi South 8.1 mph - N/A   Mostly Cloudy
9:00 AM 45 °F - 42 °F 86% 29.47 in 22 mi South 8.9 mph - -   Partly Cloudy
9:25 AM 44.6 °F 40.2 °F 41.0 °F 87% 29.44 in 6.2 mi SSW 8.1 mph - N/A   Overcast
9:29 AM 44.6 °F 40.2 °F 42.8 °F 93% 29.47 in 6.2 mi SSW 8.1 mph - N/A   Overcast
9:33 AM 44.6 °F 40.2 °F 41.0 °F 87% 29.47 in 6.2 mi SSW 8.1 mph - N/A   Overcast
9:37 AM 44.6 °F 40.2 °F 41.0 °F 87% 29.47 in 6.2 mi SSW 8.1 mph - N/A   Mostly Cloudy
9:46 AM 44.6 °F 40.2 °F 41.0 °F 87% 29.47 in 6.2 mi SSW 8.1 mph - N/A   Overcast
9:55 AM 44.6 °F 39.7 °F 41.0 °F 87% 29.47 in 6.2 mi SSW 9.2 mph - N/A   Overcast
10:00 AM 45 °F - 42 °F 85% 29.50 in 28 mi SSW 8.9 mph - -   Partly Cloudy
10:25 AM 44.6 °F 40.2 °F 41.0 °F 87% 29.50 in 6.2 mi SSW 8.1 mph - N/A   Overcast
10:55 AM 46.4 °F 41.1 °F 42.8 °F 87% 29.50 in 6.2 mi SW 11.5 mph - N/A   Mostly Cloudy
11:00 AM 46 °F - 42 °F 81% 29.52 in 19 mi SW 11.2 mph - -   Partly Cloudy
11:25 AM 46.4 °F 41.9 °F 42.8 °F 87% 29.50 in 6.2 mi SW 9.2 mph - N/A   Overcast
11:55 AM 46.4 °F 41.9 °F 42.8 °F 87% 29.50 in 6.2 mi SW 9.2 mph - N/A   Overcast
12:00 PM 46 °F - 42 °F 81% 29.53 in 16 mi SW 8.9 mph - -   Partly Cloudy
12:25 PM 46.4 °F 41.9 °F 42.8 °F 87% 29.53 in 6.2 mi SSW 9.2 mph - N/A   Overcast
12:55 PM 46.4 °F 41.9 °F 42.8 °F 87% 29.53 in 6.2 mi SW 9.2 mph - N/A   Overcast
1:00 PM 46 °F - 42 °F 83% 29.54 in 14 mi SW 8.9 mph - -   Partly Cloudy
1:25 PM 46.4 °F 42.4 °F 42.8 °F 87% 29.50 in 6.2 mi SSW 8.1 mph - N/A   Overcast
1:55 PM 48.2 °F - 42.8 °F 82% 29.50 in 6.2 mi SW 9.2 mph - N/A   Overcast
2:00 PM 48 °F - 43 °F 76% 29.51 in 14 mi SW 8.9 mph - -   Overcast
2:25 PM 48.2 °F - 42.8 °F 82% 29.50 in 6.2 mi SSW 8.1 mph - N/A   Overcast
2:55 PM 48.2 °F - 42.8 °F 82% 29.53 in 6.2 mi SSW 8.1 mph - N/A   Overcast
3:00 PM 48 °F - 42 °F 73% 29.55 in 16 mi SSW 6.7 mph - -   Overcast
3:25 PM 48.2 °F - 41.0 °F 76% 29.53 in 6.2 mi South 6.9 mph - N/A   Overcast
3:35 PM 48.2 °F - 41.0 °F 76% 29.53 in 6.2 mi SSW 5.8 mph - N/A   Mostly Cloudy
3:41 PM 48.2 °F - 41.0 °F 76% 29.53 in 6.2 mi SSW 5.8 mph - N/A   Mostly Cloudy
3:55 PM 48.2 °F - 41.0 °F 76% 29.53 in 6.2 mi SSW 5.8 mph - N/A   Overcast
4:00 PM 47 °F - 42 °F 76% 29.56 in 14 mi SSW 6.7 mph - -   Scattered Clouds
4:25 PM 46.4 °F 43.5 °F 42.8 °F 87% 29.53 in 6.2 mi SSW 5.8 mph - N/A   Overcast
4:55 PM 46.4 °F 42.9 °F 41.0 °F 81% 29.53 in 6.2 mi SSW 6.9 mph - N/A   Overcast
5:00 PM 46 °F - 42 °F 80% 29.56 in 11 mi SSW 6.7 mph - -   Overcast
5:25 PM 46.4 °F 43.5 °F 42.8 °F 87% 29.56 in 6.2 mi SSW 5.8 mph - N/A   Overcast
5:55 PM 46.4 °F 43.5 °F 42.8 °F 87% 29.56 in 6.2 mi SSW 5.8 mph - N/A   Mostly Cloudy
6:00 PM 45 °F - 42 °F 84% 29.58 in 11 mi SSW 4.5 mph - -   Scattered Clouds
6:11 PM 46.4 °F 42.4 °F 42.8 °F 87% 29.56 in 6.2 mi SSW 8.1 mph - N/A   Mostly Cloudy
6:21 PM 46.4 °F 42.4 °F 42.8 °F 87% 29.56 in 6.2 mi SSW 8.1 mph - N/A   Mostly Cloudy
6:25 PM 46.4 °F 41.9 °F 42.8 °F 87% 29.56 in 6.2 mi SSW 9.2 mph - N/A   Mostly Cloudy
6:34 PM 46.4 °F 42.4 °F 42.8 °F 87% 29.59 in 6.2 mi SW 8.1 mph - N/A   Mostly Cloudy
6:55 PM 46.4 °F 41.5 °F 42.8 °F 87% 29.59 in 6.2 mi SW 10.4 mph - N/A   Mostly Cloudy
7:00 PM 46 °F - 42 °F 80% 29.61 in 10 mi SW 11.2 mph - -   Partly Cloudy
7:25 PM 44.6 °F 39.2 °F 41.0 °F 87% 29.59 in 6.2 mi SW 10.4 mph - N/A   Overcast
7:55 PM 44.6 °F 40.7 °F 41.0 °F 87% 29.59 in 6.2 mi SSW 6.9 mph - N/A   Overcast
8:00 PM 44 °F - 41 °F 86% 29.62 in 8 mi SSW 6.7 mph - -   Overcast
8:25 PM 44.6 °F 40.7 °F 41.0 °F 87% 29.62 in 6.2 mi SSW 6.9 mph - N/A   Overcast
8:55 PM 44.6 °F 41.4 °F 41.0 °F 87% 29.62 in 6.2 mi SSW 5.8 mph - N/A   Overcast
9:00 PM 44 °F - 41 °F 83% 29.65 in 10 mi SSW 6.7 mph - -   Overcast
9:25 PM 44.6 °F 40.2 °F 39.2 °F 81% 29.65 in 6.2 mi SW 8.1 mph - N/A   Overcast
9:55 PM 42.8 °F 37.5 °F 39.2 °F 87% 29.65 in 6.2 mi SW 9.2 mph - N/A   Overcast
10:00 PM 43 °F - 39 °F 81% 29.67 in 10 mi SW 6.7 mph - -   Overcast
10:25 PM 42.8 °F 38.6 °F 39.2 °F 87% 29.65 in 6.2 mi SW 6.9 mph - N/A   Overcast
10:55 PM 41.0 °F 38.0 °F 39.2 °F 93% 29.65 in 6.2 mi SW 4.6 mph - N/A   Mostly Cloudy
11:00 PM 41 °F - 39 °F 89% 29.68 in 9 mi SW 4.5 mph - -   Mostly Cloudy
11:25 PM 41.0 °F 36.4 °F 39.2 °F 93% 29.68 in 6.2 mi SSW 6.9 mph - N/A   Mostly Cloudy
11:55 PM 41.0 °F 35.2 °F 39.2 °F 93% 29.68 in 6.2 mi SSW 9.2 mph - N/A   Mostly Cloudy